Location: Litvinovka
(48.6667°N, 34.3500°E)
Time: 03:46:41
(UTC+00:00)

Cosmos 990 Rocket - Pass Details

Date: 18 September 2020
Orbit: 746 x 769 km, 74.0° (Epoch: 22 October)

Event Time Altitude Azimuth Distance (km) Brightness Sun altitude
Rises 16:17:21 0° 193° (SSW) 3,178 7.3 -5.6°
Reaches altitude 10° 16:19:42 10° 191° (SSW) 2,258 6.5 -6.0°
Maximum altitude 16:24:47 69° 109° (ESE) 801 3.9 -6.8°
Drops below altitude 10° 16:29:54 10° 27° (NNE) 2,277 6.3 -7.6°
Sets 16:32:17 0° 25° (NNE) 3,208 7.1 -8.0°
